Time,TemperatureF,DewpointF,PressureIn,WindDirection,WindDirectionDegrees,WindSpeedMPH,WindSpeedGustMPH,Humidity,HourlyPrecipIn,Conditions,Clouds,dailyrainin,SoftwareType,DateUTC
2013-03-29 00:00:00,41.0,28.0,30.12,WNW,303,2.0,9.0,58,-99.99,,,-99.99,,2013-03-29 04:00:00,
2013-03-29 00:23:00,41.0,28.0,30.12,WNW,303,2.0,9.0,58,-99.99,,,-99.99,,2013-03-29 04:23:00,
2013-03-29 00:33:00,41.0,28.0,30.12,WNW,303,2.0,9.0,58,-99.99,,,-99.99,,2013-03-29 04:33:00,
2013-03-29 00:43:00,41.0,28.0,30.12,WNW,303,2.0,9.0,58,-99.99,,,-99.99,,2013-03-29 04:43:00,
2013-03-29 00:53:00,41.0,28.0,30.12,WNW,303,2.0,9.0,58,-99.99,,,-99.99,,2013-03-29 04:53:00,
2013-03-29 01:00:00,40.0,27.0,30.12,WNW,302,2.0,10.0,59,-99.99,,,-99.99,,2013-03-29 05:00:00,
2013-03-29 01:23:00,40.0,27.0,30.12,WNW,302,2.0,10.0,59,-99.99,,,-99.99,,2013-03-29 05:23:00,
2013-03-29 01:33:00,40.0,27.0,30.12,WNW,302,2.0,10.0,59,-99.99,,,-99.99,,2013-03-29 05:33:00,
2013-03-29 01:43:00,40.0,27.0,30.12,WNW,302,2.0,10.0,59,-99.99,,,-99.99,,2013-03-29 05:43:00,
2013-03-29 01:52:00,40.0,27.0,30.12,WNW,302,2.0,10.0,59,-99.99,,,-99.99,,2013-03-29 05:52:00,
2013-03-29 02:00:00,38.0,27.0,30.15,WNW,291,3.0,9.0,64,-99.99,,,-99.99,,2013-03-29 06:00:00,
2013-03-29 02:32:00,38.0,27.0,30.15,WNW,291,3.0,9.0,64,-99.99,,,-99.99,,2013-03-29 06:32:00,
2013-03-29 02:42:00,38.0,27.0,30.15,WNW,291,3.0,9.0,64,-99.99,,,-99.99,,2013-03-29 06:42:00,
2013-03-29 02:52:00,38.0,27.0,30.15,WNW,291,3.0,9.0,64,-99.99,,,-99.99,,2013-03-29 06:52:00,
2013-03-29 03:00:00,40.0,27.0,30.15,WNW,288,6.0,9.0,61,-99.99,,,-99.99,,2013-03-29 07:00:00,
2013-03-29 03:22:00,40.0,27.0,30.15,WNW,288,6.0,9.0,61,-99.99,,,-99.99,,2013-03-29 07:22:00,
2013-03-29 03:32:00,40.0,27.0,30.15,WNW,288,6.0,9.0,61,-99.99,,,-99.99,,2013-03-29 07:32:00,
2013-03-29 03:42:00,40.0,27.0,30.15,WNW,288,6.0,9.0,61,-99.99,,,-99.99,,2013-03-29 07:42:00,
2013-03-29 03:52:00,40.0,27.0,30.15,WNW,288,6.0,9.0,61,-99.99,,,-99.99,,2013-03-29 07:52:00,
2013-03-29 04:00:00,39.0,27.0,30.12,WSW,241,0.0,9.0,60,-99.99,,,-99.99,,2013-03-29 08:00:00,
2013-03-29 04:32:00,39.0,27.0,30.12,WSW,241,0.0,9.0,60,-99.99,,,-99.99,,2013-03-29 08:32:00,
2013-03-29 04:42:00,39.0,27.0,30.12,WSW,241,0.0,9.0,60,-99.99,,,-99.99,,2013-03-29 08:42:00,
2013-03-29 04:53:00,39.0,27.0,30.12,WSW,241,0.0,9.0,60,-99.99,,,-99.99,,2013-03-29 08:53:00,
2013-03-29 05:00:00,37.0,26.0,30.15,SW,230,5.0,10.0,65,-99.99,,,-99.99,,2013-03-29 09:00:00,
2013-03-29 05:22:00,37.0,26.0,30.15,SW,230,5.0,10.0,65,-99.99,,,-99.99,,2013-03-29 09:22:00,
2013-03-29 05:33:00,37.0,26.0,30.15,SW,230,5.0,10.0,65,-99.99,,,-99.99,,2013-03-29 09:33:00,
2013-03-29 05:43:00,37.0,26.0,30.15,SW,230,5.0,10.0,65,-99.99,,,-99.99,,2013-03-29 09:43:00,
2013-03-29 05:52:00,37.0,26.0,30.15,SW,230,5.0,10.0,65,-99.99,,,-99.99,,2013-03-29 09:52:00,
2013-03-29 06:00:00,36.0,26.0,30.15,WSW,258,7.0,10.0,66,-99.99,,,-99.99,,2013-03-29 10:00:00,
2013-03-29 06:23:00,36.0,26.0,30.15,WSW,258,7.0,10.0,66,-99.99,,,-99.99,,2013-03-29 10:23:00,
2013-03-29 06:33:00,36.0,26.0,30.15,WSW,258,7.0,10.0,66,-99.99,,,-99.99,,2013-03-29 10:33:00,
2013-03-29 06:42:00,36.0,26.0,30.15,WSW,258,7.0,10.0,66,-99.99,,,-99.99,,2013-03-29 10:42:00,
2013-03-29 06:53:00,36.0,26.0,30.15,WSW,258,7.0,10.0,66,-99.99,,,-99.99,,2013-03-29 10:53:00,
2013-03-29 07:00:00,35.0,26.0,30.15,WSW,240,1.0,9.0,68,-99.99,,,-99.99,,2013-03-29 11:00:00,
2013-03-29 07:23:00,35.0,26.0,30.15,WSW,240,1.0,9.0,68,-99.99,,,-99.99,,2013-03-29 11:23:00,
2013-03-29 07:33:00,35.0,26.0,30.15,WSW,240,1.0,9.0,68,-99.99,,,-99.99,,2013-03-29 11:33:00,
2013-03-29 07:43:00,35.0,26.0,30.15,WSW,240,1.0,9.0,68,-99.99,,,-99.99,,2013-03-29 11:43:00,
2013-03-29 07:53:00,35.0,26.0,30.15,WSW,240,1.0,9.0,68,-99.99,,,-99.99,,2013-03-29 11:53:00,
2013-03-29 08:00:00,40.0,26.0,30.18,WSW,240,2.0,10.0,58,-99.99,,,-99.99,,2013-03-29 12:00:00,
2013-03-29 08:33:00,40.0,26.0,30.18,WSW,240,2.0,10.0,58,-99.99,,,-99.99,,2013-03-29 12:33:00,
2013-03-29 08:43:00,40.0,26.0,30.18,WSW,240,2.0,10.0,58,-99.99,,,-99.99,,2013-03-29 12:43:00,
2013-03-29 08:53:00,40.0,26.0,30.18,WSW,240,2.0,10.0,58,-99.99,,,-99.99,,2013-03-29 12:53:00,
2013-03-29 09:00:00,45.0,26.0,30.18,NW,304,3.0,8.0,46,-99.99,,,-99.99,,2013-03-29 13:00:00,
2013-03-29 09:23:00,45.0,26.0,30.18,NW,304,3.0,8.0,46,-99.99,,,-99.99,,2013-03-29 13:23:00,
2013-03-29 09:33:00,45.0,26.0,30.18,NW,304,3.0,8.0,46,-99.99,,,-99.99,,2013-03-29 13:33:00,
2013-03-29 09:43:00,45.0,26.0,30.18,NW,304,3.0,8.0,46,-99.99,,,-99.99,,2013-03-29 13:43:00,
2013-03-29 09:53:00,45.0,26.0,30.18,NW,304,3.0,8.0,46,-99.99,,,-99.99,,2013-03-29 13:53:00,
2013-03-29 10:00:00,48.0,24.0,30.18,NNW,335,1.0,9.0,38,-99.99,,,-99.99,,2013-03-29 14:00:00,
2013-03-29 10:22:00,48.0,24.0,30.18,NNW,335,1.0,9.0,38,-99.99,,,-99.99,,2013-03-29 14:22:00,
2013-03-29 10:33:00,48.0,24.0,30.18,NNW,335,1.0,9.0,38,-99.99,,,-99.99,,2013-03-29 14:33:00,
2013-03-29 10:42:00,48.0,24.0,30.18,NNW,335,1.0,9.0,38,-99.99,,,-99.99,,2013-03-29 14:42:00,
2013-03-29 10:53:00,48.0,24.0,30.18,NNW,335,1.0,9.0,38,-99.99,,,-99.99,,2013-03-29 14:53:00,
2013-03-29 11:00:00,50.0,24.0,30.15,ENE,60,3.0,10.0,35,-99.99,,,-99.99,,2013-03-29 15:00:00,
2013-03-29 11:22:00,50.0,24.0,30.15,ENE,60,3.0,10.0,35,-99.99,,,-99.99,,2013-03-29 15:22:00,
2013-03-29 11:33:00,50.0,24.0,30.15,ENE,60,3.0,10.0,35,-99.99,,,-99.99,,2013-03-29 15:33:00,
2013-03-29 11:43:00,50.0,24.0,30.15,ENE,60,3.0,10.0,35,-99.99,,,-99.99,,2013-03-29 15:43:00,
2013-03-29 11:53:00,50.0,24.0,30.15,ENE,60,3.0,10.0,35,-99.99,,,-99.99,,2013-03-29 15:53:00,
2013-03-29 12:00:00,51.0,24.0,30.15,North,0,7.0,10.0,34,-99.99,,,-99.99,,2013-03-29 16:00:00,
2013-03-29 12:33:00,51.0,24.0,30.15,North,0,7.0,10.0,34,-99.99,,,-99.99,,2013-03-29 16:33:00,
2013-03-29 12:43:00,51.0,24.0,30.15,North,0,7.0,10.0,34,-99.99,,,-99.99,,2013-03-29 16:43:00,
2013-03-29 12:53:00,51.0,24.0,30.15,North,0,7.0,10.0,34,-99.99,,,-99.99,,2013-03-29 16:53:00,
2013-03-29 13:00:00,52.0,26.0,30.12,SSW,204,6.0,13.0,36,-99.99,,,-99.99,,2013-03-29 17:00:00,
2013-03-29 13:23:00,52.0,26.0,30.12,SSW,204,6.0,13.0,36,-99.99,,,-99.99,,2013-03-29 17:23:00,
2013-03-29 13:33:00,52.0,26.0,30.12,SSW,204,6.0,13.0,36,-99.99,,,-99.99,,2013-03-29 17:33:00,
2013-03-29 13:43:00,52.0,26.0,30.12,SSW,204,6.0,13.0,36,-99.99,,,-99.99,,2013-03-29 17:43:00,
2013-03-29 13:53:00,52.0,26.0,30.12,SSW,204,6.0,13.0,36,-99.99,,,-99.99,,2013-03-29 17:53:00,
2013-03-29 14:00:00,53.0,25.0,30.09,SSW,201,3.0,14.0,33,-99.99,,,-99.99,,2013-03-29 18:00:00,
2013-03-29 14:23:00,53.0,25.0,30.09,SSW,201,3.0,14.0,33,-99.99,,,-99.99,,2013-03-29 18:23:00,
2013-03-29 14:33:00,53.0,25.0,30.09,SSW,201,3.0,14.0,33,-99.99,,,-99.99,,2013-03-29 18:33:00,
2013-03-29 14:43:00,53.0,25.0,30.09,SSW,201,3.0,14.0,33,-99.99,,,-99.99,,2013-03-29 18:43:00,
2013-03-29 14:53:00,53.0,25.0,30.09,SSW,201,3.0,14.0,33,-99.99,,,-99.99,,2013-03-29 18:53:00,
2013-03-29 15:00:00,54.0,25.0,30.09,SW,232,3.0,18.0,33,-99.99,,,-99.99,,2013-03-29 19:00:00,
2013-03-29 15:33:00,54.0,25.0,30.09,SW,232,3.0,18.0,33,-99.99,,,-99.99,,2013-03-29 19:33:00,
2013-03-29 15:43:00,54.0,25.0,30.09,SW,232,3.0,18.0,33,-99.99,,,-99.99,,2013-03-29 19:43:00,
2013-03-29 15:53:00,54.0,25.0,30.09,SW,232,3.0,18.0,33,-99.99,,,-99.99,,2013-03-29 19:53:00,
2013-03-29 16:00:00,53.0,25.0,30.09,SSW,206,8.0,15.0,34,-99.99,,,-99.99,,2013-03-29 20:00:00,
2013-03-29 16:33:00,53.0,25.0,30.09,SSW,206,8.0,15.0,34,-99.99,,,-99.99,,2013-03-29 20:33:00,
2013-03-29 16:42:00,53.0,25.0,30.09,SSW,206,8.0,15.0,34,-99.99,,,-99.99,,2013-03-29 20:42:00,
2013-03-29 16:52:00,53.0,25.0,30.09,SSW,206,8.0,15.0,34,-99.99,,,-99.99,,2013-03-29 20:52:00,
2013-03-29 17:00:00,52.0,25.0,30.09,West,278,4.0,12.0,35,-99.99,,,-99.99,,2013-03-29 21:00:00,
2013-03-29 17:22:00,52.0,25.0,30.09,West,278,4.0,12.0,35,-99.99,,,-99.99,,2013-03-29 21:22:00,
2013-03-29 17:33:00,52.0,25.0,30.09,West,278,4.0,12.0,35,-99.99,,,-99.99,,2013-03-29 21:33:00,
2013-03-29 17:43:00,52.0,25.0,30.09,West,278,4.0,12.0,35,-99.99,,,-99.99,,2013-03-29 21:43:00,
2013-03-29 17:53:00,52.0,25.0,30.09,West,278,4.0,12.0,35,-99.99,,,-99.99,,2013-03-29 21:53:00,
2013-03-29 18:00:00,52.0,26.0,30.09,West,280,3.0,10.0,37,-99.99,,,-99.99,,2013-03-29 22:00:00,
2013-03-29 18:23:00,52.0,26.0,30.09,West,280,3.0,10.0,37,-99.99,,,-99.99,,2013-03-29 22:23:00,
2013-03-29 18:34:00,52.0,26.0,30.09,West,280,3.0,10.0,37,-99.99,,,-99.99,,2013-03-29 22:34:00,
2013-03-29 18:43:00,52.0,26.0,30.09,West,280,3.0,10.0,37,-99.99,,,-99.99,,2013-03-29 22:43:00,
2013-03-29 18:54:00,52.0,26.0,30.09,West,280,3.0,10.0,37,-99.99,,,-99.99,,2013-03-29 22:54:00,
2013-03-29 20:00:00,49.0,27.0,30.12,West,272,3.0,9.0,43,-99.99,,,-99.99,,2013-03-30 00:00:00,
2013-03-29 20:33:00,49.0,27.0,30.12,West,272,3.0,9.0,43,-99.99,,,-99.99,,2013-03-30 00:33:00,
2013-03-29 20:43:00,49.0,27.0,30.12,West,272,3.0,9.0,43,-99.99,,,-99.99,,2013-03-30 00:43:00,
2013-03-29 20:53:00,49.0,27.0,30.12,West,272,3.0,9.0,43,-99.99,,,-99.99,,2013-03-30 00:53:00,
2013-03-29 21:00:00,43.0,28.0,30.12,West,263,0.0,5.0,56,-99.99,,,-99.99,,2013-03-30 01:00:00,
2013-03-29 21:23:00,43.0,28.0,30.12,West,263,0.0,5.0,56,-99.99,,,-99.99,,2013-03-30 01:23:00,
2013-03-29 21:33:00,43.0,28.0,30.12,West,263,0.0,5.0,56,-99.99,,,-99.99,,2013-03-30 01:33:00,
2013-03-29 21:43:00,43.0,28.0,30.12,West,263,0.0,5.0,56,-99.99,,,-99.99,,2013-03-30 01:43:00,
2013-03-29 21:53:00,43.0,28.0,30.12,West,263,0.0,5.0,56,-99.99,,,-99.99,,2013-03-30 01:53:00,
2013-03-29 22:00:00,38.0,28.0,30.12,West,263,0.0,0.0,67,-99.99,,,-99.99,,2013-03-30 02:00:00,
2013-03-29 22:22:00,38.0,28.0,30.12,West,263,0.0,0.0,67,-99.99,,,-99.99,,2013-03-30 02:22:00,
2013-03-29 22:33:00,38.0,28.0,30.12,West,263,0.0,0.0,67,-99.99,,,-99.99,,2013-03-30 02:33:00,
2013-03-29 22:43:00,38.0,28.0,30.12,West,263,0.0,0.0,67,-99.99,,,-99.99,,2013-03-30 02:43:00,
2013-03-29 22:53:00,38.0,28.0,30.12,West,263,0.0,0.0,67,-99.99,,,-99.99,,2013-03-30 02:53:00,
2013-03-29 23:00:00,35.0,27.0,30.15,West,262,0.0,4.0,72,-99.99,,,-99.99,,2013-03-30 03:00:00,
2013-03-29 23:33:00,35.0,27.0,30.15,West,262,0.0,4.0,72,-99.99,,,-99.99,,2013-03-30 03:33:00,
2013-03-29 23:43:00,35.0,27.0,30.15,West,262,0.0,4.0,72,-99.99,,,-99.99,,2013-03-30 03:43:00,
2013-03-29 23:53:00,35.0,27.0,30.15,West,262,0.0,4.0,72,-99.99,,,-99.99,,2013-03-30 03:53:00,